GW0126 Weather Reports


time (UTC)temp
C
wind
direction
speed
KPH
gust
KPH
rain 1hr
cm
rain 24hr
cm
rain mn
cm
humidity
%
barometer
mb
20260505035801 12 174 0.0 0.0 0.00 0.00 0.00 95 1010.5
20260505035247 12 178 1.6 1.6 0.00 0.00 0.00 95 1010.4
20260505034818 12 177 0.0 1.6 0.00 0.00 0.00 94 1010.2
20260505033207 12 176 0.0 1.6 0.00 0.00 0.00 93 1010.2
20260505032147 13 177 0.0 0.0 0.00 0.00 0.00 92 1010.5
20260505031637 13 179 0.0 1.6 0.00 0.00 0.00 91 1010.6
20260505031127 13 175 0.0 0.0 0.00 0.00 0.00 90 1010.5
20260505030620 13 170 0.0 1.6 0.00 0.00 0.00 89 1010.7
20260505030111 13 177 0.0 0.0 0.00 0.00 0.00 88 1010.8
20260505025600 13 174 0.0 1.6 0.00 0.00 0.00 88 1010.9
20260505025125 13 173 0.0 1.6 0.00 0.00 0.00 87 1010.6
20260505024537 13 170 0.0 0.0 0.00 0.00 0.00 86 1011.0
20260505024027 13 169 0.0 0.0 0.00 0.00 0.00 86 1010.9
20260505022936 13 175 0.0 0.0 0.00 0.00 0.00 86 1010.9
20260505022504 13 175 0.0 1.6 0.00 0.00 0.00 86 1011.0
20260505021919 13 182 0.0 0.0 0.00 0.00 0.00 86 1011.0
20260505021410 13 177 0.0 1.6 0.00 0.00 0.00 85 1011.2
20260505020859 13 179 0.0 0.0 0.00 0.00 0.00 85 1010.8
20260505020346 13 179 0.0 0.0 0.00 0.00 0.00 85 1010.9
20260505015836 13 192 0.0 1.6 0.00 0.00 0.00 85 1011.1
20260505015326 13 177 1.6 1.6 0.00 0.00 0.00 85 1011.2
20260505014748 13 191 0.0 1.6 0.00 0.00 0.00 85 1011.0
20260505014235 13 176 0.0 1.6 0.00 0.00 0.00 85 1011.2
20260505013215 13 154 0.0 1.6 0.00 0.00 0.00 85 1011.5
20260505012155 13 91 1.6 3.2 0.00 0.00 0.00 85 1011.2
20260505011648 13 188 0.0 0.0 0.00 0.00 0.00 85 1010.8
20260505011213 13 183 0.0 0.0 0.00 0.00 0.00 85 1010.8
20260505010625 13 187 0.0 3.2 0.00 0.00 0.00 85 1010.9
20260505005643 13 198 0.0 0.0 0.00 0.00 0.00 84 1010.9
20260505005055 13 193 0.0 0.0 0.00 0.00 0.00 84 1011.0
20260505003525 13 229 0.0 0.0 0.00 0.00 0.00 84 1011.2
20260505001955 13 226 0.0 0.0 0.00 0.00 0.00 84 1011.3
20260505001445 13 226 0.0 0.0 0.00 0.00 0.00 84 1011.5
20260504235443 13 212 0.0 0.0 0.00 0.00 0.00 84 1011.6
20260504234855 13 207 0.0 1.6 0.00 0.00 0.00 84 1011.5
20260504234507 13 208 0.0 0.0 0.00 0.00 0.00 84 1011.4
20260504233835 13 212 0.0 0.0 0.00 0.00 0.00 84 1011.5
20260504233325 13 213 0.0 0.0 0.00 0.00 0.00 84 1011.5
20260504232853 13 214 0.0 0.0 0.00 0.00 0.00 84 1011.4
20260504232343 13 213 0.0 0.0 0.00 0.00 0.00 85 1011.3
20260504231755 13 218 0.0 0.0 0.00 0.00 0.00 85 1011.5
20260504231248 13 215 0.0 0.0 0.00 0.00 0.00 86 1011.6
20260504230735 13 215 0.0 0.0 0.00 0.00 0.00 86 1011.8
20260504230225 13 215 0.0 0.0 0.00 0.00 0.00 86 1011.7
20260504225715 13 215 0.0 0.0 0.00 0.00 0.00 86 1011.8
20260504225205 13 215 0.0 0.0 0.00 0.00 0.00 86 1011.8
20260504224820 13 214 0.0 0.0 0.00 0.00 0.00 86 1011.8
20260504223716 13 214 0.0 0.0 0.00 0.00 0.00 86 1011.9
20260504222615 13 214 0.0 0.0 0.00 0.00 0.00 85 1012.1
20260504221123 13 213 0.0 0.0 0.00 0.00 0.00 84 1012.0
20260504220534 13 212 0.0 0.0 0.00 0.00 0.00 84 1011.9
20260504220024 13 220 0.0 1.6 0.00 0.00 0.00 84 1012.1
20260504215005 14 220 0.0 0.0 0.00 0.00 0.00 83 1012.1
20260504213945 14 218 0.0 0.0 0.00 0.00 0.00 82 1012.2
20260504213434 14 212 0.0 0.0 0.00 0.00 0.00 81 1012.1
20260504212924 15 210 0.0 0.0 0.00 0.00 0.00 80 1011.9
20260504212415 15 204 0.0 0.0 0.00 0.00 0.00 79 1012.1
20260504211355 15 218 0.0 0.0 0.00 0.00 0.00 78 1012.2
20260504210844 15 218 0.0 1.6 0.00 0.00 0.00 78 1012.3
20260504205824 15 215 0.0 0.0 0.00 0.00 0.00 77 1012.3
20260504205314 16 217 0.0 0.0 0.00 0.00 0.00 76 1012.3
20260504204843 16 218 0.0 0.0 0.00 0.00 0.00 76 1012.2
20260504204254 16 245 0.0 1.6 0.00 0.00 0.00 75 1012.1
20260504203744 16 218 0.0 0.0 0.00 0.00 0.00 75 1012.1
20260504202724 16 216 0.0 0.0 0.00 0.00 0.00 75 1012.3
20260504202214 16 207 0.0 0.0 0.00 0.00 0.00 74 1012.2
20260504201704 16 207 0.0 0.0 0.00 0.00 0.00 74 1012.4
20260504201232 16 217 0.0 0.0 0.00 0.00 0.00 74 1012.1
20260504200645 16 218 0.0 0.0 0.00 0.00 0.00 74 1012.1
20260504200135 16 215 0.0 0.0 0.00 0.00 0.00 74 1011.9
20260504194054 17 201 0.0 0.0 0.00 0.00 0.00 72 1012.1
20260504193544 17 201 0.0 0.0 0.00 0.00 0.00 71 1012.2
20260504192014 17 206 0.0 1.6 0.00 0.00 0.00 71 1012.2
20260504191504 17 202 0.0 0.0 0.00 0.00 0.00 71 1011.9
20260504185937 18 202 0.0 0.0 0.00 0.00 0.00 69 1011.8
20260504185424 18 202 0.0 0.0 0.00 0.00 0.00 68 1012.0
20260504184914 18 202 0.0 0.0 0.00 0.00 0.00 67 1011.9
20260504183344 18 202 0.0 0.0 0.00 0.00 0.00 68 1011.7
20260504182913 19 202 0.0 0.0 0.00 0.00 0.00 67 1011.8
20260504182450 19 202 0.0 0.0 0.00 0.00 0.00 67 1012.0
20260504181814 19 201 0.0 0.0 0.00 0.00 0.00 66 1011.8
20260504181304 19 201 0.0 0.0 0.00 0.00 0.00 65 1011.9
20260504180754 20 202 0.0 0.0 0.00 0.00 0.00 64 1011.8
20260504175812 20 214 0.0 1.6 0.00 0.00 0.00 62 1011.7
20260504175304 20 170 0.0 0.0 0.00 0.00 0.00 62 1011.7
20260504174714 20 215 0.0 1.6 0.00 0.00 0.00 61 1011.6
20260504174204 20 194 0.0 1.6 0.00 0.00 0.00 60 1011.6
20260504173654 20 54 0.0 1.6 0.00 0.00 0.00 59 1011.6
20260504173144 20 192 0.0 3.2 0.00 0.00 0.00 59 1011.4
20260504172634 20 199 0.0 1.6 0.00 0.00 0.00 59 1011.6
20260504172202 20 175 0.0 4.8 0.00 0.00 0.00 59 1011.7
20260504171614 21 204 1.6 3.2 0.00 0.00 0.00 59 1011.7
20260504170554 21 118 1.6 3.2 0.00 0.00 0.00 60 1011.4
20260504170122 21 212 0.0 0.0 0.00 0.00 0.00 60 1011.6
20260504150609 21 194 0.0 3.2 0.00 0.00 0.00 58 1011.8
20260504140943 22 213 1.6 1.6 0.00 0.00 0.00 54 1011.9
20260504140433 22 56 1.6 3.2 0.00 0.00 0.00 53 1012.2
20260504110343 20 210 1.6 1.6 0.00 0.00 0.00 67 1012.6
20260504081313 20 109 3.2 6.4 0.00 0.00 0.00 64 1012.8
20260504080803 20 208 8.0 11.3 0.00 0.00 0.00 64 1012.6
20260504080330 20 68 1.6 4.8 0.00 0.00 0.00 65 1012.6
20260504050240 13 165 0.0 0.0 0.00 0.00 0.00 88 1011.5
20260504045652 13 165 0.0 0.0 0.00 0.00 0.00 88 1011.3